Weather History for KMNM - April, 2012

Change the Weather History Date:

Saturday, April 21, 2012

  Actual Average Record
Temperature  
Mean Temperature 37 °F -  
Max Temperature 46 °F 58 °F 84 °F (1985)
Min Temperature 28 °F 36 °F 21 °F (1959)
Degree Days  
Heating Degree Days 28    
Moisture  
Dew Point 26 °F    
Average Humidity 64    
Maximum Humidity 93    
Minimum Humidity 37    
Precipitation  
Precipitation 0.00 in - - ()
Sea Level Pressure  
Sea Level Pressure 30.07 in    
Wind  
Wind Speed 7 mph (ENE)    
Max Wind Speed 15 mph    
Max Gust Speed -    
Visibility 10 miles    
Events      
Averages and records for this station are not official NWS values.
T = Trace of Precipitation, MM = Missing Value Source: NWS Daily Summary

Daily Weather History Graph

Daily Weather History Graph

Search for Another Location

Airport or City:

Trip Planner

Search our weather history database for the weather conditions in past years. The results will help you decide how hot, cold, wet, or windy it might be!

Date:

Astronomy

Apr. 21, 2012 Rise Set
Actual Time 5:54 AM CDT 7:44 PM CDT
Civil Twilight 5:23 AM CDT 8:15 PM CDT
Nautical Twilight 4:44 AM CDT 8:54 PM CDT
Astronomical Twilight 4:03 AM CDT 9:36 PM CDT
Moon 5:48 AM CDT (4/21) 8:29 PM CDT (4/21)
Length of Visible Light 14h 52m
Length of Day
13h 49m
New Moon, 0% of the Moon is Illuminated
Apr 21
New Moon
Apr 29
First Quarter
May 5
Full
May 12
Last Quarter
May 20
New

Hourly Weather History & Observations

Time (CDT) Temp. Windchill Dew Point Humidity Pressure Visibility Wind Dir Wind Speed Gust Speed Precip Events Conditions
12:15 AM 33.8 °F 27.7 °F 24.8 °F 70% 30.08 in 10.0 mi North 6.9 mph - N/A   Clear
12:35 AM 33.8 °F 27.0 °F 24.8 °F 70% 30.08 in 10.0 mi NNW 8.1 mph - N/A   Clear
12:55 AM 33.8 °F 27.7 °F 24.8 °F 70% 30.07 in 10.0 mi NNW 6.9 mph - N/A   Clear
1:15 AM 32.0 °F 25.6 °F 23.0 °F 69% 30.06 in 10.0 mi North 6.9 mph - N/A   Clear
1:35 AM 32.0 °F 26.4 °F 23.0 °F 69% 30.06 in 10.0 mi North 5.8 mph - N/A   Clear
1:55 AM 32.0 °F 27.5 °F 24.8 °F 75% 30.06 in 10.0 mi North 4.6 mph - N/A   Clear
2:15 AM 30.2 °F 24.3 °F 24.8 °F 80% 30.06 in 10.0 mi North 5.8 mph - N/A   Clear
2:35 AM 30.2 °F 26.7 °F 24.8 °F 80% 30.06 in 10.0 mi North 3.5 mph - N/A   Clear
2:55 AM 30.2 °F 26.7 °F 24.8 °F 80% 30.06 in 10.0 mi NNW 3.5 mph - N/A   Clear
3:15 AM 30.2 °F 26.7 °F 26.6 °F 86% 30.06 in 10.0 mi NNW 3.5 mph - N/A   Clear
3:35 AM 30.2 °F 25.4 °F 24.8 °F 80% 30.07 in 10.0 mi NNW 4.6 mph - N/A   Clear
3:55 AM 30.2 °F 25.4 °F 24.8 °F 80% 30.06 in 10.0 mi North 4.6 mph - N/A   Clear
4:15 AM 30.2 °F 26.7 °F 26.6 °F 86% 30.06 in 10.0 mi North 3.5 mph - N/A   Clear
4:35 AM 30.2 °F 25.4 °F 26.6 °F 86% 30.06 in 10.0 mi North 4.6 mph - N/A   Clear
4:55 AM 30.2 °F 23.4 °F 26.6 °F 86% 30.06 in 10.0 mi North 6.9 mph - N/A   Clear
5:15 AM 30.2 °F - 26.6 °F 86% 30.07 in 10.0 mi Calm Calm - N/A   Clear
5:35 AM 30.2 °F 24.3 °F 28.4 °F 93% 30.07 in 10.0 mi North 5.8 mph - N/A   Clear
5:55 AM 30.2 °F 26.7 °F 28.4 °F 93% 30.08 in 10.0 mi North 3.5 mph - N/A   Clear
6:15 AM 28.4 °F - 26.6 °F 93% 30.08 in 10.0 mi Calm Calm - N/A   Clear
6:35 AM 30.2 °F - 26.6 °F 86% 30.08 in 10.0 mi Calm Calm - N/A   Clear
6:55 AM 30.2 °F - 28.4 °F 93% 30.09 in 10.0 mi Calm Calm - N/A   Clear
7:15 AM 33.8 °F 29.6 °F 28.4 °F 81% 30.10 in 10.0 mi NNE 4.6 mph - N/A   Clear
7:35 AM 33.8 °F 27.7 °F 30.2 °F 87% 30.10 in 10.0 mi NNE 6.9 mph - N/A   Clear
7:55 AM 35.6 °F 31.7 °F 30.2 °F 81% 30.10 in 10.0 mi NNE 4.6 mph - N/A   Clear
8:15 AM 37.4 °F 32.1 °F 30.2 °F 75% 30.11 in 10.0 mi NNE 6.9 mph - N/A   Clear
8:35 AM 39.2 °F 35.0 °F 30.2 °F 70% 30.11 in 10.0 mi NNE 5.8 mph - N/A   Clear
8:55 AM 39.2 °F 35.9 °F 30.2 °F 70% 30.11 in 10.0 mi ENE 4.6 mph - N/A   Clear
9:15 AM 41.0 °F 37.1 °F 30.2 °F 65% 30.11 in 10.0 mi East 5.8 mph - N/A   Clear
9:35 AM 42.8 °F 37.5 °F 30.2 °F 61% 30.11 in 10.0 mi East 9.2 mph - N/A   Clear
9:55 AM 42.8 °F 36.6 °F 30.2 °F 61% 30.11 in 10.0 mi East 11.5 mph - N/A   Clear
10:15 AM 42.8 °F 36.2 °F 32.0 °F 66% 30.11 in 10.0 mi East 12.7 mph - N/A   Clear
10:35 AM 42.8 °F 36.6 °F 32.0 °F 66% 30.11 in 10.0 mi East 11.5 mph - N/A   Clear
10:55 AM 42.8 °F 37.0 °F 32.0 °F 66% 30.10 in 10.0 mi East 10.4 mph - N/A   Clear
11:15 AM 42.8 °F 37.5 °F 30.2 °F 61% 30.10 in 10.0 mi East 9.2 mph - N/A   Clear
11:35 AM 44.6 °F 40.2 °F 26.6 °F 49% 30.10 in 10.0 mi ESE 8.1 mph - N/A   Clear
11:55 AM 44.6 °F 40.7 °F 28.4 °F 53% 30.09 in 10.0 mi ESE 6.9 mph - N/A   Clear
12:15 PM 44.6 °F 40.2 °F 30.2 °F 57% 30.09 in 10.0 mi SE 8.1 mph - N/A   Clear
12:35 PM 44.6 °F 39.7 °F 30.2 °F 57% 30.08 in 10.0 mi ESE 9.2 mph - N/A   Clear
12:55 PM 44.6 °F 39.7 °F 28.4 °F 53% 30.08 in 10.0 mi ESE 9.2 mph - N/A   Clear
1:15 PM 46.4 °F 41.5 °F 30.2 °F 53% 30.08 in 10.0 mi ESE 10.4 mph - N/A   Clear
1:35 PM 46.4 °F 41.1 °F 24.8 °F 43% 30.08 in 10.0 mi ESE 11.5 mph - N/A   Clear
1:55 PM 46.4 °F 40.7 °F 24.8 °F 43% 30.07 in 10.0 mi ESE 12.7 mph - N/A   Clear
2:15 PM 46.4 °F 40.4 °F 24.8 °F 43% 30.07 in 10.0 mi ESE 13.8 mph - N/A   Clear
2:35 PM 46.4 °F 40.1 °F 26.6 °F 46% 30.06 in 10.0 mi ESE 15.0 mph - N/A   Clear
2:55 PM 46.4 °F 40.7 °F 24.8 °F 43% 30.05 in 10.0 mi ESE 12.7 mph - N/A   Clear
3:15 PM 46.4 °F 41.1 °F 24.8 °F 43% 30.05 in 10.0 mi ESE 11.5 mph - N/A   Clear
3:35 PM 46.4 °F 41.1 °F 24.8 °F 43% 30.05 in 10.0 mi ESE 11.5 mph - N/A   Clear
3:55 PM 46.4 °F 40.7 °F 26.6 °F 46% 30.05 in 10.0 mi ESE 12.7 mph - N/A   Clear
4:15 PM 46.4 °F 41.5 °F 26.6 °F 46% 30.05 in 10.0 mi SE 10.4 mph - N/A   Clear
4:35 PM 46.4 °F 41.5 °F 24.8 °F 43% 30.05 in 10.0 mi ESE 10.4 mph - N/A   Clear
4:55 PM 46.4 °F 41.1 °F 26.6 °F 46% 30.05 in 10.0 mi ESE 11.5 mph - N/A   Clear
5:15 PM 46.4 °F 40.4 °F 24.8 °F 43% 30.05 in 10.0 mi ESE 13.8 mph - N/A   Clear
5:35 PM 46.4 °F 41.1 °F 24.8 °F 43% 30.06 in 10.0 mi SE 11.5 mph - N/A   Clear
5:55 PM 46.4 °F 40.1 °F 21.2 °F 37% 30.06 in 10.0 mi SE 15.0 mph - N/A   Clear
6:15 PM 44.6 °F 39.2 °F 21.2 °F 39% 30.06 in 10.0 mi SE 10.4 mph - N/A   Clear
6:35 PM 44.6 °F 39.7 °F 19.4 °F 37% 30.06 in 10.0 mi SE 9.2 mph - N/A   Clear
6:55 PM 44.6 °F 39.7 °F 19.4 °F 37% 30.06 in 10.0 mi SE 9.2 mph - N/A   Clear
7:15 PM 42.8 °F 38.0 °F 19.4 °F 39% 30.06 in 10.0 mi SE 8.1 mph - N/A   Clear
7:35 PM 42.8 °F 39.3 °F 21.2 °F 42% 30.06 in 10.0 mi SE 5.8 mph - N/A   Clear
7:55 PM 41.0 °F 37.1 °F 21.2 °F 45% 30.06 in 10.0 mi ESE 5.8 mph - N/A   Clear
8:15 PM 39.2 °F 37.0 °F 21.2 °F 49% 30.07 in 10.0 mi ESE 3.5 mph - N/A   Clear
8:35 PM 39.2 °F - 24.8 °F 56% 30.07 in 10.0 mi Calm Calm - N/A   Clear
8:55 PM 37.4 °F - 26.6 °F 65% 30.07 in 10.0 mi Calm Calm - N/A   Clear
9:15 PM 35.6 °F - 26.6 °F 70% 30.08 in 10.0 mi Calm Calm - N/A   Clear
9:35 PM 35.6 °F - 26.6 °F 70% 30.07 in 10.0 mi Calm Calm - N/A   Clear
9:55 PM 33.8 °F 29.6 °F 28.4 °F 81% 30.07 in 10.0 mi North 4.6 mph - N/A   Clear
10:15 PM 33.8 °F - 28.4 °F 81% 30.07 in 10.0 mi Calm Calm - N/A   Clear
10:35 PM 35.6 °F 31.7 °F 26.6 °F 70% 30.07 in 10.0 mi North 4.6 mph - N/A   Clear
11:15 PM 33.8 °F 29.6 °F 26.6 °F 75% 30.08 in 10.0 mi North 4.6 mph - N/A   Clear
11:35 PM 32.0 °F 27.5 °F 26.6 °F 80% 30.09 in 10.0 mi North 4.6 mph - N/A   Clear
11:55 PM 32.0 °F 27.5 °F 26.6 °F 80% 30.09 in 10.0 mi NNW 4.6 mph - N/A   Clear